Hourly Weather Klakowo

Today, 2 August, Monday

Time Temperature Precipitation Wind Pressure Humidity
00:00 +19°C° 3.3 mm 1 mps 738 mmHg 95%
01:00 +18°C° 3.3 mm 2 mps 737 mmHg 96%
02:00 +18°C° 3.3 mm 2 mps 737 mmHg 98%
03:00 +18°C° 5.4 mm 3 mps 736 mmHg 98%
04:00 +16°C° 5.4 mm 5 mps 736 mmHg 97%
05:00 +16°C° 5.4 mm 6 mps 736 mmHg 97%
06:00 +16°C° 0.8 mm 6 mps 737 mmHg 96%
07:00 +16°C° 0.8 mm 6 mps 738 mmHg 94%
08:00 +15°C° 0.8 mm 6 mps 739 mmHg 93%
09:00 +16°C° 0 mm 5 mps 739 mmHg 89%
10:00 +16°C° 0 mm 5 mps 740 mmHg 85%
11:00 +17°C° 0 mm 5 mps 741 mmHg 81%
12:00 +19°C° 0.5 mm 5 mps 741 mmHg 77%
13:00 +20°C° 0.5 mm 5 mps 741 mmHg 74%
14:00 +21°C° 0.5 mm 6 mps 741 mmHg 70%
15:00 +21°C° 0.5 mm 6 mps 742 mmHg 71%
16:00 +20°C° 0.5 mm 5 mps 742 mmHg 73%
17:00 +20°C° 0.5 mm 5 mps 742 mmHg 74%
18:00 +19°C° 0.2 mm 4 mps 742 mmHg 78%
19:00 +18°C° 0.2 mm 3 mps 742 mmHg 82%
20:00 +17°C° 0.2 mm 3 mps 743 mmHg 85%
21:00 +16°C° 0 mm 3 mps 743 mmHg 85%
22:00 +14°C° 0 mm 3 mps 743 mmHg 85%
23:00 +14°C° 0 mm 3 mps 744 mmHg 85%

Tomorrow, 3 August, Tuesday

Time Temperature Precipitation Wind Pressure Humidity
00:00 +13°C° 0 mm 3 mps 744 mmHg 84%
01:00 +13°C° 0 mm 3 mps 744 mmHg 84%
02:00 +13°C° 0 mm 3 mps 744 mmHg 83%
03:00 +13°C° 0 mm 3 mps 744 mmHg 83%
04:00 +13°C° 0 mm 3 mps 744 mmHg 82%
05:00 +13°C° 0 mm 3 mps 745 mmHg 81%
06:00 +14°C° 0 mm 3 mps 745 mmHg 76%
07:00 +15°C° 0 mm 4 mps 745 mmHg 71%
08:00 +17°C° 0 mm 5 mps 746 mmHg 66%
09:00 +19°C° 0 mm 5 mps 746 mmHg 61%
10:00 +20°C° 0 mm 5 mps 746 mmHg 57%
11:00 +21°C° 0 mm 5 mps 746 mmHg 52%
12:00 +21°C° 0.1 mm 5 mps 746 mmHg 52%
13:00 +22°C° 0.1 mm 5 mps 746 mmHg 52%
14:00 +22°C° 0.1 mm 5 mps 746 mmHg 51%
15:00 +22°C° 0.1 mm 5 mps 746 mmHg 53%
16:00 +22°C° 0.1 mm 5 mps 746 mmHg 55%
17:00 +21°C° 0.1 mm 5 mps 746 mmHg 56%
18:00 +20°C° 0 mm 4 mps 746 mmHg 62%
19:00 +19°C° 0 mm 3 mps 746 mmHg 68%
20:00 +18°C° 0 mm 1 mps 746 mmHg 74%
21:00 +18°C° 0 mm 1 mps 747 mmHg 72%
22:00 +18°C° 0 mm 1 mps 747 mmHg 70%
23:00 +18°C° 0 mm 1 mps 747 mmHg 69%

Day after tomorrow, 4 August, Wednesday

Time Temperature Precipitation Wind Pressure Humidity
00:00 +18°C° 0 mm 1 mps 747 mmHg 68%
01:00 +18°C° 0 mm 1 mps 747 mmHg 66%
02:00 +18°C° 0 mm 1 mps 747 mmHg 65%
03:00 +18°C° 0 mm 1 mps 747 mmHg 66%
04:00 +18°C° 0 mm 1 mps 747 mmHg 67%
05:00 +17°C° 0 mm 2 mps 747 mmHg 68%
06:00 +18°C° 0 mm 1 mps 747 mmHg 66%
07:00 +19°C° 0 mm 1 mps 747 mmHg 65%
08:00 +18°C° 0 mm 0 mps 747 mmHg 63%
09:00 +21°C° 0 mm 1 mps 748 mmHg 59%
10:00 +23°C° 0 mm 1 mps 748 mmHg 54%
11:00 +24°C° 0 mm 2 mps 748 mmHg 49%
12:00 +25°C° 0 mm 2 mps 747 mmHg 47%
13:00 +25°C° 0 mm 2 mps 747 mmHg 46%
14:00 +26°C° 0 mm 3 mps 747 mmHg 44%
15:00 +25°C° 0.3 mm 2 mps 747 mmHg 52%
16:00 +24°C° 0.3 mm 2 mps 747 mmHg 60%
17:00 +21°C° 0.3 mm 2 mps 747 mmHg 68%
18:00 +20°C° 0.5 mm 2 mps 747 mmHg 73%
19:00 +19°C° 0.5 mm 2 mps 747 mmHg 79%
20:00 +18°C° 0.5 mm 2 mps 747 mmHg 85%
21:00 +17°C° 0.1 mm 2 mps 747 mmHg 87%
22:00 +17°C° 0.1 mm 2 mps 747 mmHg 89%
23:00 +16°C° 0.1 mm 2 mps 747 mmHg 91%

5 August, Thursday

Time Temperature Precipitation Wind Pressure Humidity
00:00 +16°C° 0 mm 2 mps 747 mmHg 91%
01:00 +16°C° 0 mm 2 mps 746 mmHg 90%
02:00 +16°C° 0 mm 2 mps 746 mmHg 90%
03:00 +16°C° 0 mm 2 mps 746 mmHg 90%
04:00 +16°C° 0 mm 2 mps 746 mmHg 90%
05:00 +16°C° 0 mm 2 mps 745 mmHg 90%
06:00 +17°C° 0 mm 2 mps 745 mmHg 89%
07:00 +18°C° 0 mm 2 mps 745 mmHg 87%
08:00 +18°C° 0 mm 3 mps 745 mmHg 85%
09:00 +20°C° 0 mm 3 mps 745 mmHg 78%
10:00 +21°C° 0 mm 3 mps 745 mmHg 72%
11:00 +23°C° 0 mm 4 mps 744 mmHg 65%
12:00 +23°C° 0.2 mm 4 mps 744 mmHg 63%
13:00 +25°C° 0.2 mm 4 mps 744 mmHg 62%
14:00 +26°C° 0.2 mm 4 mps 743 mmHg 60%
15:00 +25°C° 0.5 mm 3 mps 743 mmHg 65%
16:00 +24°C° 0.5 mm 3 mps 742 mmHg 70%
17:00 +24°C° 0.5 mm 2 mps 742 mmHg 75%
18:00 +23°C° 1.1 mm 2 mps 742 mmHg 80%
19:00 +21°C° 1.1 mm 2 mps 741 mmHg 85%
20:00 +20°C° 1.1 mm 2 mps 741 mmHg 90%
21:00 +19°C° 0.8 mm 2 mps 740 mmHg 92%
22:00 +19°C° 0.8 mm 2 mps 740 mmHg 93%
23:00 +19°C° 0.8 mm 2 mps 739 mmHg 95%

6 August, Friday

Time Temperature Precipitation Wind Pressure Humidity
00:00 +19°C° 1 mm 2 mps 739 mmHg 96%
01:00 +19°C° 1 mm 3 mps 738 mmHg 97%
02:00 +18°C° 1 mm 3 mps 737 mmHg 98%
03:00 +19°C° 4.2 mm 3 mps 737 mmHg 98%
04:00 +19°C° 4.2 mm 4 mps 736 mmHg 98%
05:00 +19°C° 4.2 mm 4 mps 735 mmHg 98%
06:00 +19°C° 2.1 mm 4 mps 735 mmHg 97%
07:00 +19°C° 2.1 mm 4 mps 735 mmHg 96%
08:00 +19°C° 2.1 mm 4 mps 735 mmHg 95%
09:00 +17°C° 1.5 mm 5 mps 735 mmHg 95%
10:00 +17°C° 1.5 mm 5 mps 735 mmHg 95%
11:00 +16°C° 1.5 mm 6 mps 736 mmHg 96%
12:00 +16°C° 3.1 mm 6 mps 737 mmHg 95%
13:00 +16°C° 3.1 mm 6 mps 738 mmHg 94%
14:00 +16°C° 3.1 mm 7 mps 739 mmHg 93%
15:00 +17°C° 0.2 mm 6 mps 739 mmHg 88%
16:00 +19°C° 0.2 mm 6 mps 740 mmHg 82%
17:00 +21°C° 0.2 mm 5 mps 740 mmHg 76%
18:00 +20°C° 0 mm 5 mps 740 mmHg 77%
19:00 +19°C° 0 mm 4 mps 741 mmHg 77%
20:00 +19°C° 0 mm 4 mps 741 mmHg 78%
21:00 +19°C° 0 mm 4 mps 741 mmHg 78%
22:00 +19°C° 0 mm 4 mps 742 mmHg 79%
23:00 +18°C° 0 mm 3 mps 742 mmHg 79%

7 August, Saturday

Time Temperature Precipitation Wind Pressure Humidity
00:00 +18°C° 0 mm 3 mps 742 mmHg 79%
01:00 +18°C° 0 mm 3 mps 742 mmHg 78%
02:00 +18°C° 0 mm 3 mps 743 mmHg 78%
03:00 +18°C° 0 mm 3 mps 743 mmHg 80%
04:00 +17°C° 0 mm 3 mps 743 mmHg 83%
05:00 +16°C° 0 mm 2 mps 743 mmHg 85%
06:00 +17°C° 0 mm 3 mps 744 mmHg 81%
07:00 +19°C° 0 mm 3 mps 744 mmHg 77%
08:00 +20°C° 0 mm 3 mps 744 mmHg 72%
09:00 +21°C° 0 mm 3 mps 745 mmHg 68%
10:00 +24°C° 0 mm 3 mps 745 mmHg 63%
11:00 +25°C° 0 mm 3 mps 745 mmHg 59%
12:00 +26°C° 0.2 mm 3 mps 745 mmHg 57%
13:00 +26°C° 0.2 mm 3 mps 745 mmHg 55%
14:00 +27°C° 0.2 mm 3 mps 746 mmHg 54%
15:00 +26°C° 0 mm 3 mps 746 mmHg 56%
16:00 +26°C° 0 mm 2 mps 746 mmHg 58%
17:00 +26°C° 0 mm 2 mps 746 mmHg 59%
18:00 +25°C° 0 mm 2 mps 746 mmHg 63%
19:00 +24°C° 0 mm 1 mps 746 mmHg 66%
20:00 +23°C° 0 mm 1 mps 746 mmHg 69%
21:00 +22°C° 0 mm 1 mps 747 mmHg 70%
22:00 +21°C° 0 mm 1 mps 747 mmHg 72%
23:00 +20°C° 0 mm 1 mps 747 mmHg 74%
Show more